Eureka, NV

12:45 AM PDT on August 31, 2016 (GMT -0700)
Eureka

Weather History for KP68 - August, 2014

Change the Weather History Date:

Thursday, August 28, 2014

  Actual Average Record
Temperature  
Mean Temperature 68 °F 64 °F  
Max Temperature 87 °F 84 °F 94 °F (2001)
Min Temperature 48 °F 45 °F 32 °F (1963)
Degree Days  
Heating Degree Days 0 2  
Month to date heating degree days 22 26  
Since 1 June heating degree days 125 199  
Since 1 July heating degree days 22 39  
Cooling Degree Days 3 2  
Month to date cooling degree days 84 97  
Year to date cooling degree days 387 272  
Since 1 June cooling degree days 385 269  
Growing Degree Days 16 (Base 50)    
Moisture  
Dew Point 28 °F    
Average Humidity 30    
Maximum Humidity 50    
Minimum Humidity 10    
Precipitation  
Precipitation 0.00 in 0.02 in 0.83 in (1982)
Month to date precipitation 1.84 0.52  
Year to date precipitation 6.81 6.23  
Sea Level Pressure  
Sea Level Pressure 30.02 in    
Wind  
Wind Speed 7 mph (South)    
Max Wind Speed 15 mph    
Max Gust Speed 17 mph    
T = Trace of Precipitation, MM = Missing Value Source: NWS Daily Summary

Daily Weather History Graph

Daily Weather History Graph

Search for Another Location

Airport or City:

Trip Planner

Search our weather history database for the weather conditions in past years. The results will help you decide how hot, cold, wet, or windy it might be!

Date:

Astronomy

Aug. 28, 2014 Rise Set
Actual Time 6:08 AM PDT 7:21 PM PDT
Civil Twilight 5:40 AM PDT 7:48 PM PDT
Nautical Twilight 5:07 AM PDT 8:22 PM PDT
Astronomical Twilight 4:32 AM PDT 8:56 PM PDT
Moon 9:04 AM PDT (8/28) 8:48 PM PDT (8/28)
Length of Visible Light 14h 08m
Length of Day
13h 12m
Waxing Crescent, 9% of the Moon is Illuminated
Aug 28
Waxing Crescent
Sep 2
First Quarter
Sep 8
Full
Sep 15
Last Quarter
Sep 23
New

Hourly Weather History & Observations

Time (PDT) Temp. Dew Point Humidity Pressure Visibility Wind Dir Wind Speed Gust Speed Precip Events Conditions
1:53 AM 53.1 °F 30.9 °F 43% 30.08 in - South 9.2 mph - N/A   Unknown
2:53 AM 53.1 °F 30.9 °F 43% 30.07 in - SSW 11.5 mph - N/A   Unknown
3:53 AM 51.1 °F 30.9 °F 46% 30.09 in - SSW 9.2 mph - N/A   Unknown
5:53 AM 48.9 °F 30.9 °F 50% 30.10 in - SSW 10.4 mph - N/A   Unknown
6:53 AM 51.1 °F 32.0 °F 48% 30.12 in - South 6.9 mph - N/A   Unknown
7:53 AM 57.0 °F 32.0 °F 39% 30.14 in - SW 6.9 mph - N/A   Unknown
8:53 AM 68.0 °F 33.1 °F 27% 30.12 in - SW 8.1 mph - N/A   Unknown
9:53 AM 73.9 °F 32.0 °F 21% 30.09 in - Calm Calm - N/A   Unknown
10:53 AM 79.0 °F 28.9 °F 16% 30.08 in - Calm Calm - N/A   Unknown
11:53 AM 80.1 °F 28.0 °F 15% 30.06 in - Variable 4.6 mph - N/A   Unknown
12:53 PM 80.1 °F 23.0 °F 12% 30.04 in - Variable 5.8 mph - N/A   Unknown
1:53 PM 84.0 °F 23.0 °F 11% 30.00 in - NNE 8.1 mph - N/A   Unknown
2:53 PM 84.9 °F 25.0 °F 11% 29.98 in - NNW 9.2 mph - N/A   Unknown
3:53 PM 84.9 °F 25.0 °F 11% 29.96 in - North 9.2 mph - N/A   Unknown
4:53 PM 84.9 °F 25.0 °F 11% 29.94 in - NNE 5.8 mph - N/A   Unknown
5:53 PM 82.9 °F 25.0 °F 12% 29.94 in - East 5.8 mph - N/A   Unknown
6:53 PM 82.0 °F 28.0 °F 14% 29.94 in - ENE 3.5 mph - N/A   Unknown
7:53 PM 68.0 °F 28.0 °F 22% 29.97 in - NW 4.6 mph - N/A   Unknown
8:53 PM 63.0 °F 28.0 °F 27% 29.96 in - South 5.8 mph - N/A   Unknown
9:53 PM 59.0 °F 28.9 °F 32% 29.96 in - South 8.1 mph - N/A   Unknown
10:53 PM 62.1 °F 27.0 °F 26% 29.93 in - South 6.9 mph - N/A   Unknown
11:53 PM 57.0 °F 30.9 °F 37% 29.94 in - SE 3.5 mph - N/A   Unknown